Roanoke, VA

7:30 AM EST on November 19, 2019 (GMT -0500)
Roanoke Regional-Woodrum

Weather History for KROA - September, 2019

Change the Weather History Date:

Monday, September 30, 2019

  Actual Average Record
Temperature  
Mean Temperature 78 °F 63 °F  
Max Temperature 83 °F 73 °F 91 °F (1953)
Min Temperature 72 °F 52 °F 32 °F (1942)
Degree Days  
Heating Degree Days 0 4  
Month to date heating degree days 1 46  
Since 1 July heating degree days 1 49  
Cooling Degree Days 13 2  
Month to date cooling degree days 321 139  
Year to date cooling degree days 1684 1186  
Growing Degree Days 27 (Base 50)    
Moisture  
Dew Point 68 °F    
Average Humidity 79    
Maximum Humidity 93    
Minimum Humidity 65    
Precipitation  
Precipitation 0.01 in 0.12 in 2.72 in (1936)
Month to date precipitation 1.31 3.89  
Year to date precipitation 32.01 32.02  
Snow  
Snow 0.00 in - - ()
Month to date snowfall 0.0  
Since 1 July snowfall T  
Since 1 September snowfall 0.0  
Snow Depth 0.00 in    
Sea Level Pressure  
Sea Level Pressure 30.22 in    
Wind  
Wind Speed 5 mph (SE)    
Max Wind Speed 12 mph    
Max Gust Speed 17 mph    
Visibility 10 miles    
Events Rain , Thunderstorm    
T = Trace of Precipitation, MM = Missing Value Source: NWS Daily Summary

Daily Weather History Graph

Daily Weather History Graph

Search for Another Location

Airport or City:

Astronomy

Sep. 30, 2019 Rise Set
Actual Time 7:14 AM EDT 7:04 PM EDT
Civil Twilight 6:48 AM EDT 7:30 PM EDT
Nautical Twilight 6:18 AM EDT 8:01 PM EDT
Astronomical Twilight 5:47 AM EDT 8:31 PM EDT
Moon 9:14 AM EDT (9/30) 8:42 PM EDT (9/30)
Length of Visible Light 12h 42m
Length of Day
11h 50m
Waxing Crescent, 5% of the Moon is Illuminated
Sep 30
Waxing Crescent
Oct 5
First Quarter
Oct 13
Full
Oct 21
Last Quarter
Oct 27
New

Hourly Weather History & Observations

Time (EDT) Temp. Heat Index Dew Point Humidity Pressure Visibility Wind Dir Wind Speed Gust Speed Precip Events Conditions
12:54 AM 73.9 °F - 66.0 °F 76% 30.23 in 10.0 mi Calm Calm - N/A   Scattered Clouds
1:54 AM 73.0 °F - 66.0 °F 79% 30.23 in 10.0 mi NE 3.5 mph - N/A   Partly Cloudy
2:33 AM 72.0 °F - 66.9 °F 84% 30.26 in 10.0 mi Calm Calm - N/A   Mostly Cloudy
2:54 AM 72.0 °F - 66.9 °F 84% 30.22 in 10.0 mi Calm Calm - N/A   Mostly Cloudy
3:54 AM 73.0 °F - 66.9 °F 81% 30.21 in 10.0 mi Calm Calm - N/A   Overcast
4:28 AM 73.0 °F - 66.9 °F 81% 30.25 in 10.0 mi Calm Calm - N/A   Overcast
4:54 AM 73.0 °F - 66.9 °F 81% 30.21 in 10.0 mi Calm Calm - N/A   Overcast
5:54 AM 73.0 °F - 69.1 °F 87% 30.22 in 10.0 mi SSE 6.9 mph - N/A   Overcast
6:31 AM 72.0 °F - 69.1 °F 91% 30.26 in 10.0 mi ESE 5.8 mph - N/A   Overcast
6:54 AM 72.0 °F - 69.1 °F 91% 30.23 in 9.0 mi SE 5.8 mph - N/A   Overcast
7:16 AM 72.0 °F - 69.1 °F 91% 30.27 in 9.0 mi SE 6.9 mph - N/A   Overcast
7:54 AM 72.0 °F - 69.1 °F 91% 30.23 in 9.0 mi SE 8.1 mph - N/A   Overcast
8:01 AM 72.0 °F - 69.1 °F 91% 30.27 in 9.0 mi SE 6.9 mph - N/A   Overcast
8:54 AM 73.0 °F - 69.1 °F 87% 30.25 in 9.0 mi SSE 6.9 mph - N/A   Overcast
9:24 AM 73.9 °F - 69.1 °F 85% 30.28 in 9.0 mi SSE 6.9 mph - N/A   Overcast
9:54 AM 73.9 °F - 69.1 °F 85% 30.25 in 10.0 mi SSE 6.9 mph - N/A   Overcast
10:07 AM 73.9 °F - 69.1 °F 85% 30.29 in 2.5 mi ESE 6.9 mph - N/A   Haze
10:15 AM 73.9 °F - 69.1 °F 85% 30.29 in 4.0 mi ESE 5.8 mph - N/A   Haze
10:54 AM 75.0 °F - 69.1 °F 82% 30.25 in 10.0 mi SE 5.8 mph - N/A   Overcast
11:54 AM 78.1 °F - 69.1 °F 74% 30.24 in 10.0 mi Variable 4.6 mph - N/A   Mostly Cloudy
12:44 PM 78.1 °F - 68.0 °F 71% 30.26 in 10.0 mi SSE 8.1 mph - N/A   Mostly Cloudy
12:54 PM 79.0 °F - 69.1 °F 72% 30.22 in 10.0 mi SE 9.2 mph - N/A   Mostly Cloudy
1:02 PM 79.0 °F - 69.1 °F 72% 30.26 in 10.0 mi SSE 8.1 mph - N/A   Mostly Cloudy
1:50 PM 80.6 °F 83.9 °F 69.8 °F 70% 30.22 in 10.0 mi ESE 6.9 mph - N/A   Scattered Clouds
1:54 PM 82.0 °F 85.5 °F 69.1 °F 65% 30.18 in 10.0 mi SE 10.4 mph - N/A   Scattered Clouds
2:04 PM 82.9 °F 86.5 °F 69.1 °F 63% 30.21 in 10.0 mi SSE 9.2 mph - N/A   Mostly Cloudy
2:31 PM 82.0 °F 85.5 °F 69.1 °F 65% 30.20 in 10.0 mi SSE 9.2 mph - N/A   Mostly Cloudy
2:54 PM 82.0 °F 85.5 °F 69.1 °F 65% 30.17 in 10.0 mi SSE 9.2 mph - N/A   Mostly Cloudy
3:19 PM 80.1 °F 82.9 °F 69.1 °F 69% 30.19 in 10.0 mi SSE 10.4 mph - N/A Thunderstorm Mostly Cloudy
3:41 PM 80.1 °F 82.9 °F 69.1 °F 69% 30.20 in 10.0 mi South 8.1 mph - N/A Thunderstorm Thunderstorm
3:54 PM 79.0 °F - 70.0 °F 74% 30.16 in 10.0 mi SSE 9.2 mph - 0.00 in   Overcast
4:54 PM 79.0 °F - 69.1 °F 72% 30.17 in 8.0 mi SE 4.6 mph - N/A Rain Light Rain
5:54 PM 78.1 °F - 69.1 °F 74% 30.16 in 10.0 mi South 5.8 mph - 0.01 in   Partly Cloudy
6:54 PM 75.9 °F - 68.0 °F 76% 30.16 in 10.0 mi ESE 8.1 mph - N/A   Partly Cloudy
7:54 PM 73.9 °F - 66.9 °F 79% 30.17 in 10.0 mi SE 5.8 mph - N/A   Partly Cloudy
8:54 PM 73.0 °F - 68.0 °F 84% 30.18 in 10.0 mi SE 5.8 mph - N/A   Mostly Cloudy
9:05 PM 73.9 °F - 68.0 °F 82% 30.21 in 10.0 mi SSE 5.8 mph - N/A   Overcast
9:54 PM 73.0 °F - 68.0 °F 84% 30.18 in 10.0 mi South 4.6 mph - N/A   Overcast
10:32 PM 73.0 °F - 68.0 °F 84% 30.22 in 10.0 mi Calm Calm - N/A   Overcast
11:54 PM 72.0 °F - 68.0 °F 87% 30.19 in 10.0 mi South 3.5 mph - N/A   Overcast